Cheraw, SC

7:01 PM EDT on May 24, 2017 (GMT -0400)
Cheraw

Weather History for KCQW - February, 2013

Change the Weather History Date:

Saturday, February 9, 2013

  Actual Average (KFLO) Record (KFLO)
Temperature  
Mean Temperature 44 °F -  
Max Temperature 57 °F 53 °F 79 °F (1994)
Min Temperature 32 °F 32 °F 17 °F (1995)
Degree Days  
Heating Degree Days 20    
Moisture  
Dew Point 23 °F    
Average Humidity 50    
Maximum Humidity 93    
Minimum Humidity 20    
Precipitation  
Precipitation 0.00 in - - ()
Sea Level Pressure  
Sea Level Pressure 30.24 in    
Wind  
Wind Speed 11 mph (NNW)    
Max Wind Speed 28 mph    
Max Gust Speed 38 mph    
Visibility 10 miles    
Events      
Averages and records for this station are not official NWS values.
T = Trace of Precipitation, MM = Missing Value Source: NWS Daily Summary

Daily Weather History Graph

Daily Weather History Graph

Search for Another Location

Airport or City:

Trip Planner

Search our weather history database for the weather conditions in past years. The results will help you decide how hot, cold, wet, or windy it might be!

Date:

Astronomy

Feb. 09, 2013 Rise Set
Actual Time 7:11 AM EST 5:57 PM EST
Civil Twilight 6:45 AM EST 6:23 PM EST
Nautical Twilight 6:15 AM EST 6:53 PM EST
Astronomical Twilight 5:45 AM EST 7:22 PM EST
Moon 6:22 AM EST (2/9) 5:36 PM EST (2/9)
Length of Visible Light 11h 38m
Length of Day
10h 46m
Waning Crescent, 0% of the Moon is Illuminated
Feb 9
Waning Crescent
Feb 10
New
Feb 17
First Quarter
Feb 25
Full
Mar 4
Last Quarter

Hourly Weather History & Observations

Time (EST) Temp. Windchill Dew Point Humidity Pressure Visibility Wind Dir Wind Speed Gust Speed Precip Events Conditions
12:15 AM 42.8 °F 36.6 °F 28.4 °F 57% 30.10 in 10.0 mi North 11.5 mph 20.7 mph N/A   Clear
12:35 AM 42.8 °F 36.6 °F 28.4 °F 57% 30.11 in 10.0 mi North 11.5 mph 17.3 mph N/A   Clear
12:55 AM 41.0 °F 34.3 °F 28.4 °F 61% 30.12 in 10.0 mi North 11.5 mph 16.1 mph N/A   Clear
1:15 AM 39.2 °F 31.2 °F 28.4 °F 65% 30.12 in 10.0 mi North 13.8 mph 19.6 mph N/A   Clear
1:35 AM 39.2 °F 30.5 °F 28.4 °F 65% 30.11 in 10.0 mi North 16.1 mph 21.9 mph N/A   Clear
1:55 AM 39.2 °F 31.2 °F 28.4 °F 65% 30.11 in 10.0 mi North 13.8 mph 19.6 mph N/A   Clear
2:15 AM 37.4 °F 32.1 °F 28.4 °F 70% 30.11 in 10.0 mi North 6.9 mph - N/A   Clear
2:35 AM 37.4 °F 32.1 °F 28.4 °F 70% 30.12 in 10.0 mi North 6.9 mph - N/A   Clear
2:55 AM 37.4 °F 30.3 °F 28.4 °F 70% 30.12 in 10.0 mi NNW 10.4 mph - N/A   Clear
3:15 AM 37.4 °F 27.5 °F 28.4 °F 70% 30.12 in 10.0 mi NNW 18.4 mph 21.9 mph N/A   Clear
3:35 AM 37.4 °F 30.3 °F 26.6 °F 65% 30.13 in 10.0 mi NNW 10.4 mph 23.0 mph N/A   Clear
3:55 AM 37.4 °F 30.3 °F 26.6 °F 65% 30.13 in 10.0 mi North 10.4 mph - N/A   Clear
4:15 AM 37.4 °F 30.8 °F 26.6 °F 65% 30.14 in 10.0 mi NNW 9.2 mph - N/A   Clear
4:35 AM 37.4 °F 29.3 °F 26.6 °F 65% 30.15 in 10.0 mi North 12.7 mph 20.7 mph N/A   Clear
4:55 AM 37.4 °F 31.4 °F 26.6 °F 65% 30.16 in 10.0 mi North 8.1 mph 18.4 mph N/A   Clear
5:15 AM 35.6 °F 29.9 °F 26.6 °F 70% 30.17 in 10.0 mi NE 6.9 mph - N/A   Clear
5:35 AM 35.6 °F - 26.6 °F 70% 30.18 in 10.0 mi Calm Calm - N/A   Clear
5:55 AM 33.8 °F 27.0 °F 26.6 °F 75% 30.19 in 10.0 mi NW 8.1 mph - N/A   Clear
6:15 AM 33.8 °F 27.0 °F 26.6 °F 75% 30.19 in 10.0 mi NNW 8.1 mph - N/A   Clear
6:35 AM 35.6 °F 28.6 °F 26.6 °F 70% 30.20 in 10.0 mi NNW 9.2 mph - N/A   Clear
6:55 AM 35.6 °F 29.2 °F 26.6 °F 70% 30.21 in 10.0 mi NW 8.1 mph - N/A   Clear
7:15 AM 35.6 °F 28.6 °F 26.6 °F 70% 30.22 in 10.0 mi NNW 9.2 mph - N/A   Clear
7:35 AM 37.4 °F 28.2 °F 26.6 °F 65% 30.23 in 10.0 mi NNW 16.1 mph 20.7 mph N/A   Clear
7:55 AM 37.4 °F 29.8 °F 26.6 °F 65% 30.24 in 10.0 mi West 11.5 mph 17.3 mph N/A   Clear
8:15 AM 35.6 °F 28.0 °F 28.4 °F 75% 30.25 in 10.0 mi WSW 10.4 mph - N/A   Clear
8:35 AM 37.4 °F 33.8 °F 28.4 °F 70% 30.25 in 10.0 mi West 4.6 mph - N/A   Clear
8:55 AM 42.8 °F 37.5 °F 28.4 °F 57% 30.26 in 10.0 mi NNW 9.2 mph - N/A   Clear
9:15 AM 44.6 °F 39.7 °F 28.4 °F 53% 30.27 in 10.0 mi West 9.2 mph 17.3 mph N/A   Clear
9:35 AM 46.4 °F 39.8 °F 24.8 °F 43% 30.28 in 10.0 mi NW 16.1 mph 29.9 mph N/A   Clear
9:55 AM 46.4 °F 37.5 °F 21.2 °F 37% 30.28 in 10.0 mi NNW 27.6 mph 38.0 mph N/A   Clear
10:15 AM 48.2 °F - 21.2 °F 34% 30.28 in 10.0 mi NW 16.1 mph 33.4 mph N/A   Clear
10:35 AM 48.2 °F - 17.6 °F 30% 30.29 in 10.0 mi NNW 23.0 mph 31.1 mph N/A   Clear
10:55 AM 50.0 °F - 17.6 °F 28% 30.30 in 10.0 mi NNW 18.4 mph 33.4 mph N/A   Clear
11:15 AM 51.8 °F - 17.6 °F 26% 30.29 in 10.0 mi North 23.0 mph 33.4 mph N/A   Clear
11:35 AM 51.8 °F - 17.6 °F 26% 30.29 in 10.0 mi North 27.6 mph 35.7 mph N/A   Clear
11:55 AM 51.8 °F - 17.6 °F 26% 30.29 in 10.0 mi NNE 19.6 mph 33.4 mph N/A   Clear
12:15 PM 51.8 °F - 17.6 °F 26% 30.28 in 10.0 mi North 25.3 mph 34.5 mph N/A   Clear
12:35 PM 53.6 °F - 19.4 °F 26% 30.28 in 10.0 mi NNE 21.9 mph 36.8 mph N/A   Clear
12:55 PM 53.6 °F - 19.4 °F 26% 30.27 in 10.0 mi NNW 12.7 mph 29.9 mph N/A   Clear
1:15 PM 55.4 °F - 19.4 °F 25% 30.27 in 10.0 mi NW 20.7 mph 28.8 mph N/A   Clear
1:35 PM 55.4 °F - 17.6 °F 23% 30.26 in 10.0 mi NNW 21.9 mph 33.4 mph N/A   Clear
1:55 PM 55.4 °F - 17.6 °F 23% 30.26 in 10.0 mi NNW 17.3 mph 25.3 mph N/A   Clear
2:15 PM 57.2 °F - 17.6 °F 21% 30.26 in 10.0 mi North 10.4 mph 25.3 mph N/A   Clear
2:55 PM 57.2 °F - 15.8 °F 20% 30.25 in 10.0 mi North 18.4 mph 34.5 mph N/A   Clear
3:15 PM 57.2 °F - 15.8 °F 20% 30.25 in 10.0 mi NNE 18.4 mph 28.8 mph N/A   Clear
3:35 PM 57.2 °F - 15.8 °F 20% 30.25 in 10.0 mi NNE 13.8 mph 25.3 mph N/A   Clear
3:55 PM 57.2 °F - 15.8 °F 20% 30.25 in 10.0 mi NNE 19.6 mph 26.5 mph N/A   Clear
4:15 PM 57.2 °F - 15.8 °F 20% 30.26 in 10.0 mi NNE 10.4 mph 21.9 mph N/A   Clear
4:35 PM 55.4 °F - 17.6 °F 23% 30.25 in 10.0 mi North 17.3 mph - N/A   Clear
4:55 PM 55.4 °F - 17.6 °F 23% 30.25 in 10.0 mi North 16.1 mph 21.9 mph N/A   Clear
5:15 PM 53.6 °F - 17.6 °F 24% 30.26 in 10.0 mi North 10.4 mph 18.4 mph N/A   Clear
5:35 PM 53.6 °F - 17.6 °F 24% 30.27 in 10.0 mi North 8.1 mph - N/A   Clear
5:55 PM 48.2 °F - 21.2 °F 34% 30.27 in 10.0 mi Calm Calm - N/A   Clear
6:15 PM 46.4 °F 42.4 °F 21.2 °F 37% 30.28 in 10.0 mi NNW 8.1 mph - N/A   Clear
6:35 PM 44.6 °F 40.2 °F 21.2 °F 39% 30.28 in 10.0 mi North 8.1 mph - N/A   Clear
6:55 PM 44.6 °F - 21.2 °F 39% 30.29 in 10.0 mi Calm Calm - N/A   Clear
7:15 PM 42.8 °F 38.6 °F 23.0 °F 46% 30.30 in 10.0 mi NNW 6.9 mph - N/A   Clear
7:35 PM 42.8 °F 38.0 °F 21.2 °F 42% 30.31 in 10.0 mi North 8.1 mph - N/A   Clear
7:55 PM 42.8 °F - 21.2 °F 42% 30.31 in 10.0 mi Calm Calm - N/A   Clear
8:15 PM 42.8 °F - 21.2 °F 42% 30.32 in 10.0 mi Calm Calm - N/A   Clear
8:35 PM 41.0 °F - 21.2 °F 45% 30.33 in 10.0 mi Calm Calm - N/A   Clear
8:55 PM 41.0 °F - 21.2 °F 45% 30.34 in 10.0 mi Calm Calm - N/A   Clear
9:15 PM 39.2 °F - 23.0 °F 52% 30.34 in 10.0 mi Calm Calm - N/A   Clear
9:35 PM 35.6 °F - 30.2 °F 81% 30.35 in 10.0 mi Calm Calm - N/A   Clear
9:55 PM 37.4 °F - 26.6 °F 65% 30.35 in 10.0 mi Calm Calm - N/A   Clear
10:15 PM 37.4 °F - 24.8 °F 60% 30.35 in 10.0 mi Calm Calm - N/A   Clear
10:35 PM 35.6 °F - 28.4 °F 75% 30.35 in 10.0 mi Calm Calm - N/A   Clear
10:55 PM 33.8 °F - 28.4 °F 81% 30.35 in 10.0 mi Calm Calm - N/A   Clear
11:15 PM 32.0 °F - 30.2 °F 93% 30.35 in 10.0 mi Calm Calm - N/A   Clear
11:35 PM 33.8 °F - 28.4 °F 81% 30.35 in 10.0 mi Calm Calm - N/A   Clear
11:55 PM 32.0 °F - 28.4 °F 87% 30.34 in 10.0 mi Calm Calm - N/A   Clear